This is the latest recevied weather packets stored in our database for station/object IZ3LCH-13. If no packets are shown the sender has not sent any weather packets the latest 10 day(s).
| Time | Temp. | Humidity | Pressure | Rain* | Wind** | Luminosity | Snow |
|---|---|---|---|---|---|---|---|
| 1777896303 | 26.11° C | 41% | 1016 hPa | 0 mm | - | - | - |
| 1777896003 | 26.11° C | 41% | 1016 hPa | 0 mm | - | - | - |
| 1777895703 | 26.11° C | 45% | 1016 hPa | 0 mm | - | - | - |
| 1777895403 | 26.11° C | 42% | 1015.9 hPa | 0 mm | - | - | - |
| 1777895103 | 26.11° C | 47% | 1016 hPa | 0 mm | - | - | - |
| 1777894803 | 26.11° C | 46% | 1016.1 hPa | 0 mm | - | - | - |
| 1777894503 | 26.11° C | 47% | 1016 hPa | 0 mm | - | - | - |
| 1777894203 | 25.56° C | 47% | 1016.3 hPa | 0 mm | - | - | - |
| 1777893903 | 25.56° C | 47% | 1016.2 hPa | 0 mm | - | - | - |
| 1777893603 | 25.56° C | 48% | 1016.3 hPa | 0 mm | - | - | - |
| 1777893303 | 25° C | 48% | 1016.3 hPa | 0 mm | - | - | - |
| 1777893003 | 25° C | 47% | 1016.3 hPa | 0 mm | - | - | - |
| 1777892703 | 25.56° C | 47% | 1016.3 hPa | 0 mm | - | - | - |
| 1777892403 | 25.56° C | 45% | 1016.4 hPa | 0 mm | - | - | - |
| 1777892103 | 25.56° C | 46% | 1016.5 hPa | 0 mm | - | - | - |
| 1777891803 | 25.56° C | 47% | 1016.5 hPa | 0 mm | - | - | - |
| 1777891503 | 25° C | 47% | 1016.8 hPa | 0 mm | - | - | - |
| 1777891203 | 25° C | 48% | 1016.7 hPa | 0 mm | - | - | - |
| 1777890903 | 24.44° C | 50% | 1016.6 hPa | 0 mm | - | - | - |
| 1777890603 | 24.44° C | 53% | 1016.7 hPa | 0 mm | - | - | - |
| 1777890303 | 24.44° C | 52% | 1016.8 hPa | 0 mm | - | - | - |
| 1777890003 | 24.44° C | 50% | 1016.9 hPa | 0 mm | - | - | - |
| 1777889703 | 23.89° C | 51% | 1017.1 hPa | 0 mm | - | - | - |
| 1777889403 | 23.89° C | 51% | 1016.8 hPa | 0 mm | - | - | - |
| 1777889103 | 23.33° C | 53% | 1017.1 hPa | 0 mm | - | - | - |
* Rain latest hour (hover to see other rain measurements)
** Current wind speed in m/s (hover to see current wind gust speed)